SCP
-0 -0 0 0 0 0 0 0 0 0 0 0 0 0 0 0 0 0 0 0 0 0 0 0 0 0 0 0 0 0 0 0 0 0 0 0 0 0 0 0 0 0 0
0 0 -0 -0 0 0 0 0 0 0 0 0 0 0 0 0 0 0 0 0 0 0 0 0 0 0 0 0 0 0 0 0 0 0 0 0 0 0 0 0 0 0 0
0 0 0 -0 -0 -0 0 0 0 0 0 0 0 0 0 0 0 0 0 0 0 0 0 0 0 0 0 0 0 0 0 0 0 0 0 0 0 0 0 0 0 0 0
0 0 0 0 0 0 0 0 0 0 0 0 0 0 0 0 0 0 0 0 0 0 0 0 0 0 0 0 0 0 0 0 0 0 0 0 0 0 0 0 0 0 0
0 0 0 0 0 0 0 0 0 0 0 0 0 0 0 0 0 0 0 0 0 0 0 0 0 0 0 0 0 0 0 0 0 0 0 0 0 0 0 0 0 0 0
0 0 0 0 0 0 0 -0 0 0 0 0 0 0 0 0 0 0 0 0 0 0 0 0 0 0 0 0 0 0 0 0 0 0 0 0 0 0 0 0 0 0 0
0 0 0 0 0 0 0 0 -0 -0 0 0 0 0 0 0 0 0 0 0 0 0 0 0 0 0 0 0 0 0 0 0 0 0 0 0 0 0 0 0 0 0 0
-0 -0 -0 0 -0 0 0 0 0 0 0 0 0 0 0 0 0 0 0 0 0 0 0 0 0 0 0 0 0 0 0 0 0 0 0 0 0 0 0 0 0 0 0
-0 -0 -0 -0 -0 -0 0 0 0 0 0 0 0 0 0 0 0 0 0 0 0 0 0 0 0 0 0 0 0 0 0 0 0 0 0 0 0 0 0 0 0 0 0
-0 0 0 -0 -0 0 -0 0 0 0 0 0 0 0 0 0 0 0 0 0 0 0 0 0 0 0 0 0 0 0 0 0 0 0 0 0 0 0 0 0 0 0 0
-0 -0 -0 -0 -0 -0 0 0 0 0 0 0 0 0 0 0 0 0 0 0 0 0 0 0 0 0 0 0 0 0 0 0 0 0 0 0 0 0 0 0 0 0 0
0 -0 -0 -0 -0 -0 -0 -0 0 0 0 0 0 0 0 0 0 0 0 0 0 0 0 0 0 0 0 0 0 0 0 0 0 0 0 0 0 0 0 0 0 0 0
-0 -0 -0 -0 -0 -0 -0 -0 -0 0 0 0 0 0 0 0 0 0 0 0 0 0 0 0 0 0 0 0 0 0 0 0 0 0 0 0 0 0 0 0 0 0 0
0 -0 -0 -0 -0 -0 -0 -0 -0 0 0 0 0 0 0 0 0 0 0 0 0 0 0 0 0 0 0 0 0 0 0 0 0 0 0 0 0 0 0 0 0 0 0
0 0 -0 -0 -0 -0 -0 -0 -0 -0 0 0 0 0 0 0 0 0 0 0 0 0 0 0 0 0 0 0 0 0 0 0 0 0 0 0 0 0 0 0 0 0 0
0 0 0 -0 -0 -0 -0 -0 -0 0 0 0 0 0 0 0 0 0 0 0 0 0 0 0 0 0 0 0 0 0 0 0 0 0 0 0 0 0 0 0 0 0 0
0 0 0 0 0 0 0 0 0 0 0 0 0 0 0 0 0 0 -0 0 0 0 0 0 0 0 0 0 0 0 0 0 0 0 0 0 0 0 0 0 0 0 0
0 0 0 0 0 0 0 0 0 0 0 0 0 0 0 0 0 0 0 0 0 0 0 0 0 0 0 0 0 0 0 0 0 0 0 0 0 0 0 0 0 0 0
0 0 0 0 0 0 0 0 0 0 0 0 0 0 0 0 0 0 -0 0 0 0 0 0 0 0 0 0 0 0 0 0 0 0 0 0 0 0 0 0 0 0 0
0 0 0 0 0 0 0 0 0 0 0 0 0 0 0 0 0 0 0 0 0 0 0 0 0 0 0 0 0 0 0 0 0 0 0 0 0 0 0 0 0 0 0
0 0 0 0 0 0 0 0 0 0 0 0 0 0 0 0 0 0 0 0 0 0 0 0 0 0 0 0 0 0 0 0 0 0 0 0 0 0 0 0 0 0 0
0 0 0 0 0 0 0 0 0 0 0 0 0 0 0 0 0 0 0 0 0 0 0 0 0 0 0 0 0 0 0 0 0 0 0 0 0 0 0 0 0 0 0
0 0 -0 -0 -0 -0 0 0 0 0 0 0 0 0 0 0 0 0 0 0 0 0 0 0 0 0 0 0 0 0 0 0 0 0 0 0 0 0 0 0 0 0 0
0 0 0 0 0 0 -0 -0 0 0 0 0 0 0 0 0 0 0 0 0 0 0 0 0 0 0 0 0 0 0 0 0 0 0 0 0 0 0 0 0 0 0 0
0 0 0 -0 0 0 0 0 0 0 0 0 0 0 0 0 0 0 0 0 0 0 0 0 0 0 0 0 0 0 0 0 0 0 0 0 0 0 0 0 0 0 0
0 0 0 0 0 0 -0 -0 -0 0 0 0 0 0 0 0 0 0 0 0 0 0 0 0 0 0 0 0 0 0 0 0 0 0 0 0 0 0 0 0 0 0 0
Wind_Speed_500mb
62 59 56 49 51 57 66 72 74 73 81 89 90 93 97 105 111 112 113 109 105 102 98 92 87 84 81 76 68 64 60 55 51 47 41 34 30 28 32 38 42 47 47
63 62 61 58 52 52 65 69 69 70 75 82 88 94 97 98 106 114 117 113 108 112 106 99 94 89 86 80 74 70 64 59 55 48 41 36 34 34 38 44 44 47 48
66 69 65 67 65 57 56 63 69 66 73 85 85 91 100 101 102 105 115 118 114 115 112 104 99 94 94 88 84 75 67 63 56 50 45 42 42 42 43 46 47 49 47
73 74 74 75 77 75 65 57 61 67 70 81 85 90 95 103 101 104 108 114 116 117 116 109 102 98 99 93 86 77 70 66 60 54 49 45 41 40 40 44 44 46 40
82 82 78 80 80 84 77 68 62 61 71 80 83 85 92 102 108 109 108 112 121 120 121 113 108 98 97 94 87 81 76 71 68 60 54 49 44 40 39 38 37 40 38
74 79 86 84 85 80 85 80 69 64 64 73 79 82 91 99 108 111 111 112 116 120 120 114 113 105 99 97 91 81 77 76 72 66 59 53 43 38 35 34 35 36 34
68 72 77 82 90 91 84 82 79 66 61 66 72 81 87 91 99 105 106 110 115 120 117 117 118 112 103 102 95 88 83 78 74 65 60 51 43 36 34 33 37 35 37
78 78 81 86 85 88 92 87 80 75 64 59 66 74 82 87 94 100 93 97 108 115 116 119 117 114 107 105 100 92 86 81 77 71 57 50 42 36 36 35 33 36 41
86 87 87 91 94 86 87 89 83 78 71 60 58 66 72 80 90 95 94 92 95 104 111 115 114 112 105 108 98 91 85 82 73 65 54 47 43 39 38 32 29 35 42
88 94 98 97 93 94 89 86 83 79 75 65 58 59 63 72 78 82 88 92 92 101 114 112 115 113 101 102 100 93 90 80 73 63 57 53 46 33 30 32 30 32 36
94 97 100 103 104 102 98 91 83 76 81 74 63 59 60 69 71 66 72 87 98 106 111 116 110 101 94 96 94 92 85 76 69 62 59 52 42 36 33 31 30 32 34
102 109 106 104 110 110 107 99 88 77 73 82 73 61 57 62 68 66 69 84 91 99 96 107 108 98 95 94 94 82 76 72 69 67 60 51 43 38 33 29 30 32 33
114 114 115 112 105 111 112 103 94 82 76 76 79 70 66 57 55 58 64 77 95 90 90 98 93 93 94 91 87 76 78 80 73 67 56 48 42 34 31 29 28 31 33
122 123 122 117 114 104 109 103 86 83 78 74 79 76 68 66 54 49 58 72 88 78 78 80 81 86 87 82 73 63 70 71 67 58 53 47 41 36 31 30 30 34 38
119 119 113 110 111 103 100 100 82 79 77 72 76 72 73 71 57 45 58 79 93 89 69 71 73 79 80 82 86 84 78 73 62 58 55 50 44 37 32 28 29 32 37
109 106 96 90 92 92 93 104 85 70 66 71 68 70 70 66 53 38 44 80 85 87 74 75 79 80 89 93 93 89 77 63 61 58 53 46 38 33 27 22 25 29 39
90 93 89 85 83 76 77 73 83 74 51 62 62 68 67 63 46 45 34 73 73 79 79 80 86 93 101 96 89 87 82 71 63 59 52 44 36 30 24 21 24 31 38
87 87 86 83 81 78 75 70 62 61 60 58 59 54 64 55 54 41 37 66 71 76 90 92 91 97 100 94 88 84 74 64 63 55 48 40 33 27 21 21 25 33 42
84 83 81 80 78 76 72 71 71 71 69 60 61 47 44 47 55 48 46 78 85 86 94 93 87 85 90 88 86 78 67 63 59 51 43 35 29 22 20 22 27 34 43
78 76 73 75 74 71 65 66 62 60 50 51 57 50 38 38 59 58 54 77 72 86 94 90 76 76 85 85 77 71 64 60 52 45 37 30 24 21 21 24 29 38 44
80 78 75 74 71 68 66 64 58 53 42 52 50 44 37 40 64 68 55 66 73 75 88 83 68 70 69 70 69 62 56 52 45 37 29 24 22 20 21 27 33 40 48
71 72 71 71 67 62 57 53 47 38 40 45 45 38 30 43 61 63 61 71 70 67 62 68 64 58 62 67 60 53 48 41 35 29 24 21 20 19 23 30 37 43 48
56 57 59 56 50 47 40 34 29 29 38 36 31 26 26 49 58 53 59 61 58 61 59 54 52 58 61 53 46 43 38 34 29 25 24 20 19 20 25 33 39 44 49
47 45 37 27 23 22 21 19 21 24 22 21 22 27 32 40 47 47 52 53 49 46 44 48 53 56 50 45 43 38 34 28 24 23 21 21 20 21 27 35 40 45 52
41 38 32 26 20 14 13 10 9 9 13 17 21 26 31 35 41 39 45 46 46 45 49 51 49 44 43 39 33 29 27 24 21 20 20 22 22 25 31 37 41 50 56
38 36 33 29 26 21 16 10 7 9 13 16 18 19 22 30 39 44 49 52 49 48 49 45 42 37 31 29 28 26 22 20 19 19 20 23 27 30 35 39 44 53 58
Wind_Direction_500mb
338 332 322 316 307 296 287 280 270 267 260 255 248 242 239 236 234 231 231 230 231 232 231 228 230 230 232 232 231 232 233 232 232 238 245 254 267 279 292 300 304 307 311
344 337 331 322 308 299 290 284 280 275 263 255 250 248 242 237 234 233 232 231 230 232 231 229 228 228 229 231 232 233 234 234 233 235 241 250 259 271 282 288 296 305 309
348 346 343 336 327 306 294 290 283 276 269 258 250 247 247 243 238 235 234 234 231 232 233 230 230 230 230 229 230 231 232 234 234 236 241 241 251 265 275 286 296 299 306
346 349 347 346 342 328 307 289 283 277 269 264 257 251 248 246 244 239 235 235 234 234 235 233 232 232 234 231 230 230 231 233 234 235 238 243 253 265 275 283 292 299 309
338 338 341 344 339 340 329 305 290 281 272 265 261 256 253 249 246 240 236 234 234 233 233 233 234 232 235 236 232 229 229 231 233 234 234 239 249 258 271 282 291 298 308
334 336 335 336 335 333 337 332 304 289 282 271 262 255 252 252 249 244 240 237 237 235 233 233 234 232 230 233 231 229 233 232 232 233 232 238 244 253 264 276 287 294 310
333 329 328 328 326 329 328 330 332 302 288 281 270 261 253 250 249 248 244 242 239 237 235 232 232 231 227 228 229 228 229 229 230 234 236 241 240 251 260 270 279 290 298
336 333 331 327 323 321 322 322 324 323 294 285 280 270 261 256 253 250 245 243 241 243 240 237 234 231 227 226 225 226 226 227 227 230 233 236 241 250 259 266 277 290 299
329 330 329 327 323 319 317 315 315 316 314 288 280 275 268 261 257 252 245 238 237 240 243 242 238 232 226 227 224 225 226 226 225 230 230 236 243 244 254 268 276 285 296
321 321 323 323 321 318 314 311 307 305 308 304 287 277 273 267 259 253 246 239 236 237 237 238 237 234 225 224 225 224 224 223 221 224 227 229 233 237 244 257 270 281 293
313 313 315 316 315 315 312 309 305 300 300 299 295 285 276 271 264 254 246 242 242 234 232 233 232 229 221 223 226 226 225 222 220 222 225 228 229 233 238 252 266 277 289
305 305 306 307 307 308 308 306 304 298 291 292 291 288 280 270 266 255 234 230 241 241 241 236 230 223 216 219 224 222 220 220 218 221 223 222 225 227 236 248 263 277 289
303 301 300 301 300 300 302 303 301 295 286 283 284 284 284 281 266 256 239 223 233 237 239 235 229 219 216 215 220 217 216 216 215 217 217 222 226 232 239 246 260 276 285
298 298 298 297 296 294 294 296 294 289 284 279 278 279 283 281 278 254 238 214 223 223 228 227 224 214 211 210 204 204 210 213 216 216 215 218 225 231 240 252 263 275 290
295 295 294 294 294 292 287 287 285 281 280 276 272 274 273 271 276 272 228 212 214 222 221 216 210 205 204 204 199 202 210 213 212 217 219 220 221 227 235 252 274 295 308
292 292 291 291 290 289 285 284 281 274 266 268 261 261 267 269 271 263 244 211 216 216 219 210 203 192 196 200 200 201 208 204 208 216 221 223 224 229 238 256 282 303 313
291 292 291 289 288 284 282 281 284 279 265 259 256 256 252 265 267 262 232 210 219 211 213 218 209 202 204 206 209 209 209 208 207 213 217 221 228 239 251 274 295 311 319
293 291 289 286 285 284 282 281 277 274 281 268 265 253 248 244 257 247 228 203 202 205 216 215 213 208 210 209 209 211 208 204 207 210 215 222 231 241 260 285 309 322 324
299 294 292 288 285 283 280 275 273 272 265 264 269 268 241 241 233 234 219 203 203 198 206 210 215 218 215 210 208 207 204 205 209 210 215 223 235 253 276 299 317 327 328
306 302 299 293 290 287 286 281 278 276 273 258 261 269 261 236 220 221 213 212 206 204 206 211 210 218 216 209 205 198 195 203 207 209 213 224 240 262 282 304 321 329 330
308 305 302 295 287 285 283 280 279 276 268 258 267 272 261 233 218 220 218 211 212 212 205 206 208 221 213 204 195 192 198 203 205 209 217 228 246 265 287 307 322 329 331
314 310 305 296 293 288 284 283 280 269 262 263 269 267 241 224 222 216 214 214 213 213 215 216 214 214 202 193 187 190 198 201 208 215 223 237 253 273 293 311 325 329 328
323 323 317 302 296 293 288 281 275 270 266 272 269 259 226 213 205 209 211 209 205 206 209 208 205 191 183 176 181 189 194 202 211 220 231 242 262 282 302 315 322 325 325
343 344 342 341 326 315 310 304 290 280 272 260 240 226 222 202 201 205 200 194 188 188 196 187 182 177 171 173 180 183 193 201 212 225 238 251 271 287 301 310 318 322 320
3 6 6 5 356 337 309 291 272 251 235 224 209 202 196 190 191 189 179 174 174 172 168 166 162 163 171 174 178 187 198 205 220 238 256 267 280 288 299 309 315 317 318
23 27 32 35 37 38 41 57 103 145 166 172 172 170 170 169 163 158 159 157 155 157 154 154 161 165 171 179 186 194 204 216 233 250 266 272 274 284 296 307 310 313 317
Wind_Speed_850mb
62 59 56 49 51 57 66 72 74 73 81 89 90 93 97 105 111 112 113 109 105 102 98 92 87 84 81 76 68 64 60 55 51 47 41 34 30 28 32 38 42 47 47
63 62 61 58 52 52 65 69 69 70 75 82 88 94 97 98 106 114 117 113 108 112 106 99 94 89 86 80 74 70 64 59 55 48 41 36 34 34 38 44 44 47 48
66 69 65 67 65 57 56 63 69 66 73 85 85 91 100 101 102 105 115 118 114 115 112 104 99 94 94 88 84 75 67 63 56 50 45 42 42 42 43 46 47 49 47
73 74 74 75 77 75 65 57 61 67 70 81 85 90 95 103 101 104 108 114 116 117 116 109 102 98 99 93 86 77 70 66 60 54 49 45 41 40 40 44 44 46 40
82 82 78 80 80 84 77 68 62 61 71 80 83 85 92 102 108 109 108 112 121 120 121 113 108 98 97 94 87 81 76 71 68 60 54 49 44 40 39 38 37 40 38
74 79 86 84 85 80 85 80 69 64 64 73 79 82 91 99 108 111 111 112 116 120 120 114 113 105 99 97 91 81 77 76 72 66 59 53 43 38 35 34 35 36 34
68 72 77 82 90 91 84 82 79 66 61 66 72 81 87 91 99 105 106 110 115 120 117 117 118 112 103 102 95 88 83 78 74 65 60 51 43 36 34 33 37 35 37
78 78 81 86 85 88 92 87 80 75 64 59 66 74 82 87 94 100 93 97 108 115 116 119 117 114 107 105 100 92 86 81 77 71 57 50 42 36 36 35 33 36 41
86 87 87 91 94 86 87 89 83 78 71 60 58 66 72 80 90 95 94 92 95 104 111 115 114 112 105 108 98 91 85 82 73 65 54 47 43 39 38 32 29 35 42
88 94 98 97 93 94 89 86 83 79 75 65 58 59 63 72 78 82 88 92 92 101 114 112 115 113 101 102 100 93 90 80 73 63 57 53 46 33 30 32 30 32 36
94 97 100 103 104 102 98 91 83 76 81 74 63 59 60 69 71 66 72 87 98 106 111 116 110 101 94 96 94 92 85 76 69 62 59 52 42 36 33 31 30 32 34
102 109 106 104 110 110 107 99 88 77 73 82 73 61 57 62 68 66 69 84 91 99 96 107 108 98 95 94 94 82 76 72 69 67 60 51 43 38 33 29 30 32 33
114 114 115 112 105 111 112 103 94 82 76 76 79 70 66 57 55 58 64 77 95 90 90 98 93 93 94 91 87 76 78 80 73 67 56 48 42 34 31 29 28 31 33
122 123 122 117 114 104 109 103 86 83 78 74 79 76 68 66 54 49 58 72 88 78 78 80 81 86 87 82 73 63 70 71 67 58 53 47 41 36 31 30 30 34 38
119 119 113 110 111 103 100 100 82 79 77 72 76 72 73 71 57 45 58 79 93 89 69 71 73 79 80 82 86 84 78 73 62 58 55 50 44 37 32 28 29 32 37
109 106 96 90 92 92 93 104 85 70 66 71 68 70 70 66 53 38 44 80 85 87 74 75 79 80 89 93 93 89 77 63 61 58 53 46 38 33 27 22 25 29 39
90 93 89 85 83 76 77 73 83 74 51 62 62 68 67 63 46 45 34 73 73 79 79 80 86 93 101 96 89 87 82 71 63 59 52 44 36 30 24 21 24 31 38
87 87 86 83 81 78 75 70 62 61 60 58 59 54 64 55 54 41 37 66 71 76 90 92 91 97 100 94 88 84 74 64 63 55 48 40 33 27 21 21 25 33 42
84 83 81 80 78 76 72 71 71 71 69 60 61 47 44 47 55 48 46 78 85 86 94 93 87 85 90 88 86 78 67 63 59 51 43 35 29 22 20 22 27 34 43
78 76 73 75 74 71 65 66 62 60 50 51 57 50 38 38 59 58 54 77 72 86 94 90 76 76 85 85 77 71 64 60 52 45 37 30 24 21 21 24 29 38 44
80 78 75 74 71 68 66 64 58 53 42 52 50 44 37 40 64 68 55 66 73 75 88 83 68 70 69 70 69 62 56 52 45 37 29 24 22 20 21 27 33 40 48
71 72 71 71 67 62 57 53 47 38 40 45 45 38 30 43 61 63 61 71 70 67 62 68 64 58 62 67 60 53 48 41 35 29 24 21 20 19 23 30 37 43 48
56 57 59 56 50 47 40 34 29 29 38 36 31 26 26 49 58 53 59 61 58 61 59 54 52 58 61 53 46 43 38 34 29 25 24 20 19 20 25 33 39 44 49
47 45 37 27 23 22 21 19 21 24 22 21 22 27 32 40 47 47 52 53 49 46 44 48 53 56 50 45 43 38 34 28 24 23 21 21 20 21 27 35 40 45 52
41 38 32 26 20 14 13 10 9 9 13 17 21 26 31 35 41 39 45 46 46 45 49 51 49 44 43 39 33 29 27 24 21 20 20 22 22 25 31 37 41 50 56
38 36 33 29 26 21 16 10 7 9 13 16 18 19 22 30 39 44 49 52 49 48 49 45 42 37 31 29 28 26 22 20 19 19 20 23 27 30 35 39 44 53 58
Wind_Direction_850mb
338 332 322 316 307 296 287 280 270 267 260 255 248 242 239 236 234 231 231 230 231 232 231 228 230 230 232 232 231 232 233 232 232 238 245 254 267 279 292 300 304 307 311
344 337 331 322 308 299 290 284 280 275 263 255 250 248 242 237 234 233 232 231 230 232 231 229 228 228 229 231 232 233 234 234 233 235 241 250 259 271 282 288 296 305 309
348 346 343 336 327 306 294 290 283 276 269 258 250 247 247 243 238 235 234 234 231 232 233 230 230 230 230 229 230 231 232 234 234 236 241 241 251 265 275 286 296 299 306
346 349 347 346 342 328 307 289 283 277 269 264 257 251 248 246 244 239 235 235 234 234 235 233 232 232 234 231 230 230 231 233 234 235 238 243 253 265 275 283 292 299 309
338 338 341 344 339 340 329 305 290 281 272 265 261 256 253 249 246 240 236 234 234 233 233 233 234 232 235 236 232 229 229 231 233 234 234 239 249 258 271 282 291 298 308
334 336 335 336 335 333 337 332 304 289 282 271 262 255 252 252 249 244 240 237 237 235 233 233 234 232 230 233 231 229 233 232 232 233 232 238 244 253 264 276 287 294 310
333 329 328 328 326 329 328 330 332 302 288 281 270 261 253 250 249 248 244 242 239 237 235 232 232 231 227 228 229 228 229 229 230 234 236 241 240 251 260 270 279 290 298
336 333 331 327 323 321 322 322 324 323 294 285 280 270 261 256 253 250 245 243 241 243 240 237 234 231 227 226 225 226 226 227 227 230 233 236 241 250 259 266 277 290 299
329 330 329 327 323 319 317 315 315 316 314 288 280 275 268 261 257 252 245 238 237 240 243 242 238 232 226 227 224 225 226 226 225 230 230 236 243 244 254 268 276 285 296
321 321 323 323 321 318 314 311 307 305 308 304 287 277 273 267 259 253 246 239 236 237 237 238 237 234 225 224 225 224 224 223 221 224 227 229 233 237 244 257 270 281 293
313 313 315 316 315 315 312 309 305 300 300 299 295 285 276 271 264 254 246 242 242 234 232 233 232 229 221 223 226 226 225 222 220 222 225 228 229 233 238 252 266 277 289
305 305 306 307 307 308 308 306 304 298 291 292 291 288 280 270 266 255 234 230 241 241 241 236 230 223 216 219 224 222 220 220 218 221 223 222 225 227 236 248 263 277 289
303 301 300 301 300 300 302 303 301 295 286 283 284 284 284 281 266 256 239 223 233 237 239 235 229 219 216 215 220 217 216 216 215 217 217 222 226 232 239 246 260 276 285
298 298 298 297 296 294 294 296 294 289 284 279 278 279 283 281 278 254 238 214 223 223 228 227 224 214 211 210 204 204 210 213 216 216 215 218 225 231 240 252 263 275 290
295 295 294 294 294 292 287 287 285 281 280 276 272 274 273 271 276 272 228 212 214 222 221 216 210 205 204 204 199 202 210 213 212 217 219 220 221 227 235 252 274 295 308
292 292 291 291 290 289 285 284 281 274 266 268 261 261 267 269 271 263 244 211 216 216 219 210 203 192 196 200 200 201 208 204 208 216 221 223 224 229 238 256 282 303 313
291 292 291 289 288 284 282 281 284 279 265 259 256 256 252 265 267 262 232 210 219 211 213 218 209 202 204 206 209 209 209 208 207 213 217 221 228 239 251 274 295 311 319
293 291 289 286 285 284 282 281 277 274 281 268 265 253 248 244 257 247 228 203 202 205 216 215 213 208 210 209 209 211 208 204 207 210 215 222 231 241 260 285 309 322 324
299 294 292 288 285 283 280 275 273 272 265 264 269 268 241 241 233 234 219 203 203 198 206 210 215 218 215 210 208 207 204 205 209 210 215 223 235 253 276 299 317 327 328
306 302 299 293 290 287 286 281 278 276 273 258 261 269 261 236 220 221 213 212 206 204 206 211 210 218 216 209 205 198 195 203 207 209 213 224 240 262 282 304 321 329 330
308 305 302 295 287 285 283 280 279 276 268 258 267 272 261 233 218 220 218 211 212 212 205 206 208 221 213 204 195 192 198 203 205 209 217 228 246 265 287 307 322 329 331
314 310 305 296 293 288 284 283 280 269 262 263 269 267 241 224 222 216 214 214 213 213 215 216 214 214 202 193 187 190 198 201 208 215 223 237 253 273 293 311 325 329 328
323 323 317 302 296 293 288 281 275 270 266 272 269 259 226 213 205 209 211 209 205 206 209 208 205 191 183 176 181 189 194 202 211 220 231 242 262 282 302 315 322 325 325
343 344 342 341 326 315 310 304 290 280 272 260 240 226 222 202 201 205 200 194 188 188 196 187 182 177 171 173 180 183 193 201 212 225 238 251 271 287 301 310 318 322 320
3 6 6 5 356 337 309 291 272 251 235 224 209 202 196 190 191 189 179 174 174 172 168 166 162 163 171 174 178 187 198 205 220 238 256 267 280 288 299 309 315 317 318
23 27 32 35 37 38 41 57 103 145 166 172 172 170 170 169 163 158 159 157 155 157 154 154 161 165 171 179 186 194 204 216 233 250 266 272 274 284 296 307 310 313 317